[[{"header":{"parameterUnit":"m.s-1","parameterCategory":2,"la1":30.2992,"la2":30.254,"lo1":-89.0895,"lo2":-89.0443,"dy":0.0025,"dx":0.0025,"nx":19,"ny":19,"refTime":"2026-04-11T21:00:00:Z","depth":"0","parameterNumber":2,"parameterNumberName":"U-component_of_CURRENTS"},"data":[0,0,0,0.1122,0.1122,0.1098,0.1098,0.1091,0.1091,0,0,0,0,0,0,0,0,0,0,0,0.1129,0.1129,0.1122,0.1122,0.1098,0.1098,0.1091,0.1091,0,0,0,0,0,0,0,0,0,0,0,0.1129,0.1129,0.1129,0.1122,0.1098,0.1098,0.1091,0.1102,0,0,0,0,0,0,0,0,0,0,0.1121,0.1125,0.1129,0.1129,0.1122,0.1098,0.1098,0.1102,0.1101,0.111,0,0.1108,0,0.1103,0.1091,0.1091,0,0,0,0.1117,0.1126,0.1122,0.1129,0.1122,0.1098,0.1107,0.1101,0.11,0.1109,0.1108,0.1107,0.1103,0.1091,0.1091,0.1187,0.1188,0,0,0.1118,0.1122,0.1123,0.1121,0.1118,0.1108,0.1107,0.11,0.11,0.1108,0.1107,0.1103,0.1091,0.1091,0.1186,0.1188,0,0,0,0.1125,0.1123,0.1119,0.1122,0.1118,0.1108,0.1106,0.11,0.1099,0.1107,0.1103,0.1091,0.1091,0.1185,0.1187,0.1236,0,0,0,0.1126,0.1128,0.1119,0.1121,0.1118,0.1105,0.1106,0.1099,0.1098,0.1103,0.1091,0.1092,0.1184,0.1186,0.1233,0.1228,0,0,0,0.113,0.1128,0.1127,0.1122,0.1114,0.1105,0.1103,0.1099,0.1096,0.1091,0.1092,0.1184,0.1186,0.1229,0.1223,0.1246,0,0,0,0.1133,0.1128,0.1127,0.1127,0.1115,0.1126,0.1103,0.1109,0.1108,0.1091,0.1184,0.1187,0.1228,0.1221,0.1243,0.1149,0.1154,0,0,0.1129,0.1128,0.113,0.1128,0.1137,0.1128,0.1163,0.1151,0.1152,0.1184,0.1186,0.1234,0.1223,0.1245,0.1286,0.1285,0,0,0,0.113,0.1128,0.1132,0.1138,0.1148,0.1176,0.1174,0.1201,0.1247,0.1164,0.1268,0.126,0.1272,0.1212,0.1213,0.1108,0.1198,0.1197,0.1197,0.1117,0.1129,0.1137,0.1158,0.1179,0.1216,0.1253,0.1297,0.1289,0.1343,0.1327,0.1411,0.1351,0.1349,0.1246,0.1372,0.1372,0.1372,0.1372,0.1111,0.1117,0.1149,0.116,0.1207,0.1246,0.1335,0.1359,0.1435,0.1423,0.1433,0.13,0.1353,0.1241,0.1376,0.1376,0.1375,0.1375,0.1374,0.1099,0.1106,0.1118,0.1154,0.1206,0.1265,0.134,0.1407,0.146,0.149,0.1407,0.1404,0.1279,0.1494,0.1494,0.1494,0.1494,0.1494,0.1495,0.1081,0.1097,0.1112,0.1148,0.1181,0.1244,0.1345,0.1395,0.143,0.1441,0.144,0.1298,0.1447,0.1411,0.1496,0.1496,0.1496,0.1496,0.1496,0.1075,0.1079,0.1102,0.1126,0.1187,0.1212,0.1308,0.1347,0.1394,0.1388,0.1254,0.1417,0.1381,0.1379,0.1342,0.1404,0.1404,0.1404,0.1404,0.1072,0.1073,0.1106,0.1138,0.1175,0.1206,0.1202,0.1223,0.12,0.1144,0.1162,0.1106,0.1114,0.106,0.1065,0.1021,0.1001,0.1,0.1,0.1085,0.1091,0.1112,0.1129,0.1167,0.1172,0.1113,0.1028,0.0969,0.0977,0.104,0.1057,0.0971,0.0992,0.0903,0.0919,0.0844,0,0]},{"header":{"parameterUnit":"m.s-1","parameterCategory":2,"la1":30.2992,"la2":30.254,"lo1":-89.0895,"lo2":-89.0443,"dy":0.0025,"dx":0.0025,"nx":19,"ny":19,"refTime":"2026-04-11T21:00:00:Z","depth":"0","parameterNumber":3,"parameterNumberName":"V-component_of_CURRENTS"},"data":[0,0,0,0.0299,0.0299,0.0315,0.0315,0.0331,0.0331,0,0,0,0,0,0,0,0,0,0,0,0.0294,0.0294,0.0299,0.0299,0.0315,0.0315,0.0331,0.0331,0,0,0,0,0,0,0,0,0,0,0,0.0294,0.0294,0.0294,0.0299,0.0315,0.0315,0.0331,0.0321,0,0,0,0,0,0,0,0,0,0,0.0307,0.0304,0.0294,0.0294,0.0299,0.0315,0.0315,0.0321,0.0322,0.0322,0,0.0323,0,0.0326,0.0332,0.0332,0,0,0,0.0303,0.0303,0.0304,0.0294,0.03,0.0315,0.0309,0.0321,0.0323,0.0323,0.0323,0.0324,0.0326,0.0332,0.0332,0.0353,0.0353,0,0,0.0302,0.03,0.0303,0.0305,0.0301,0.0308,0.0309,0.0322,0.0324,0.0323,0.0324,0.0326,0.0332,0.0332,0.0353,0.0353,0,0,0,0.0297,0.03,0.0301,0.0304,0.0306,0.0309,0.031,0.0324,0.0323,0.0324,0.0326,0.0332,0.0332,0.0353,0.0353,0.0413,0,0,0,0.0297,0.0297,0.0301,0.0301,0.0306,0.0316,0.0311,0.0322,0.0324,0.0326,0.0332,0.0332,0.0353,0.0353,0.0411,0.0444,0,0,0,0.0294,0.0297,0.0297,0.03,0.0305,0.0316,0.0317,0.0323,0.0325,0.0332,0.0332,0.0353,0.0353,0.0409,0.0441,0.0503,0,0,0,0.0294,0.0297,0.0297,0.0305,0.0305,0.0322,0.0317,0.033,0.0338,0.0332,0.0353,0.0353,0.0408,0.0439,0.0501,0.0549,0.0566,0,0,0.0298,0.0298,0.0303,0.0303,0.0322,0.0321,0.0351,0.0356,0.0343,0.0348,0.0349,0.0411,0.0441,0.0503,0.057,0.0586,0,0,0,0.0305,0.0309,0.0314,0.0325,0.0336,0.0365,0.0365,0.0377,0.0395,0.0348,0.0402,0.0419,0.0456,0.0479,0.0492,0.0498,0.0355,0.0355,0.0355,0.0313,0.032,0.0337,0.0351,0.0368,0.0396,0.0428,0.0442,0.0418,0.0437,0.046,0.0538,0.0561,0.0571,0.0577,0.0447,0.0447,0.0447,0.0448,0.0328,0.0342,0.036,0.0378,0.041,0.0439,0.049,0.0498,0.0558,0.0511,0.0545,0.0531,0.0589,0.059,0.0451,0.0451,0.045,0.045,0.045,0.0338,0.0347,0.0356,0.0392,0.0442,0.0478,0.0574,0.0598,0.0612,0.0654,0.0682,0.0681,0.069,0.0672,0.0672,0.0672,0.0673,0.0673,0.0673,0.0346,0.0357,0.0382,0.0416,0.0456,0.053,0.0632,0.0698,0.0761,0.0759,0.0759,0.072,0.0607,0.0608,0.068,0.0679,0.0678,0.0677,0.0677,0.0365,0.0366,0.0406,0.0441,0.0534,0.0634,0.0721,0.0864,0.092,0.0958,0.0894,0.082,0.0812,0.0801,0.0806,0.0926,0.0926,0.0926,0.0926,0.0379,0.0382,0.044,0.0503,0.0595,0.0689,0.0869,0.0981,0.1028,0.1027,0.1,0.0951,0.094,0.0936,0.0922,0.0927,0.1075,0.1075,0.1075,0.04,0.0415,0.0463,0.0517,0.0622,0.0756,0.0919,0.1054,0.1093,0.1079,0.1005,0.0999,0.0918,0.0901,0.0882,0.0861,0.0864,0,0]}],[{"header":{"parameterUnit":"m.s-1","parameterCategory":2,"la1":30.2992,"la2":30.254,"lo1":-89.0895,"lo2":-89.0443,"dy":0.0025,"dx":0.0025,"nx":19,"ny":19,"refTime":"2026-04-11T21:00:00:Z","depth":"2","parameterNumber":2,"parameterNumberName":"U-component_of_CURRENTS"},"data":[0,0,0,0.1105,0.1104,0.1088,0.1087,0.1078,0.1078,0,0,0,0,0,0,0,0,0,0,0,0.1109,0.1109,0.1105,0.1104,0.1088,0.1087,0.1078,0.1078,0,0,0,0,0,0,0,0,0,0,0,0.1109,0.1109,0.1109,0.1104,0.1088,0.1087,0.1078,0.1086,0,0,0,0,0,0,0,0,0,0,0.1101,0.1105,0.1109,0.1109,0.1104,0.1088,0.1087,0.1087,0.1086,0.1091,0,0.1091,0,0.1088,0.1078,0.1078,0,0,0,0.1099,0.1106,0.1103,0.1109,0.1104,0.1088,0.1094,0.1086,0.1085,0.109,0.1091,0.109,0.1088,0.1078,0.1078,0.1169,0.117,0,0,0.11,0.1104,0.1103,0.1103,0.1104,0.1094,0.1093,0.1085,0.1086,0.1091,0.109,0.1087,0.1078,0.1078,0.1168,0.1169,0,0,0,0.1106,0.1105,0.1102,0.1103,0.1101,0.1094,0.1093,0.1086,0.1085,0.109,0.1087,0.1078,0.1078,0.1167,0.1169,0.1221,0,0,0,0.1107,0.1109,0.1102,0.1104,0.1101,0.1092,0.1093,0.1086,0.1085,0.1087,0.1078,0.1078,0.1166,0.1168,0.1217,0.1209,0,0,0,0.111,0.1109,0.1109,0.1104,0.11,0.1092,0.109,0.1085,0.1084,0.1078,0.1078,0.1165,0.1168,0.1214,0.1205,0.1228,0,0,0,0.1112,0.1109,0.1109,0.111,0.11,0.1112,0.109,0.1097,0.1096,0.1078,0.1166,0.1169,0.1213,0.1202,0.1225,0.1122,0.1125,0,0,0.1109,0.1109,0.1111,0.111,0.112,0.1114,0.1149,0.1137,0.1138,0.1166,0.1167,0.1219,0.1204,0.1227,0.1257,0.1255,0,0,0,0.111,0.1109,0.1114,0.112,0.1131,0.1161,0.116,0.1187,0.1233,0.1149,0.1251,0.1241,0.1253,0.1187,0.1188,0.118,0.1179,0.1179,0.1179,0.1099,0.111,0.112,0.1141,0.1162,0.1201,0.1237,0.1281,0.1273,0.1328,0.1309,0.1394,0.1328,0.1326,0.1355,0.1356,0.1356,0.1356,0.1356,0.1093,0.1099,0.1131,0.1144,0.1193,0.1232,0.132,0.1344,0.1417,0.1407,0.1417,0.1278,0.1328,0.1361,0.136,0.1359,0.1359,0.1359,0.1358,0.1082,0.1089,0.1102,0.1139,0.1193,0.1254,0.1329,0.1392,0.1444,0.147,0.1383,0.138,0.1386,0.1478,0.1478,0.1478,0.1478,0.1478,0.1478,0.1065,0.1081,0.1098,0.1135,0.1171,0.1237,0.1337,0.1381,0.1406,0.1415,0.1414,0.1434,0.143,0.1394,0.148,0.148,0.1479,0.1479,0.1479,0.1058,0.1064,0.1089,0.1116,0.1182,0.1207,0.1303,0.1326,0.1367,0.135,0.1386,0.1387,0.1349,0.1347,0.131,0.1369,0.1369,0.1369,0.1369,0.1055,0.1058,0.1095,0.1132,0.1173,0.1202,0.1181,0.1157,0.1196,0.1185,0.1193,0.1146,0.1154,0.1102,0.1106,0.1062,0.1057,0.1057,0.1056,0.1066,0.1074,0.1101,0.1125,0.1167,0.1169,0.1081,0.0925,0.0897,0.1045,0.1145,0.1347,0.1297,0.1302,0.1236,0.1237,0.1173,0,0]},{"header":{"parameterUnit":"m.s-1","parameterCategory":2,"la1":30.2992,"la2":30.254,"lo1":-89.0895,"lo2":-89.0443,"dy":0.0025,"dx":0.0025,"nx":19,"ny":19,"refTime":"2026-04-11T21:00:00:Z","depth":"2","parameterNumber":3,"parameterNumberName":"V-component_of_CURRENTS"},"data":[0,0,0,0.0157,0.0157,0.0181,0.0181,0.0208,0.0208,0,0,0,0,0,0,0,0,0,0,0,0.015,0.015,0.0157,0.0157,0.0181,0.0181,0.0208,0.0208,0,0,0,0,0,0,0,0,0,0,0,0.015,0.015,0.015,0.0157,0.0181,0.0181,0.0208,0.0192,0,0,0,0,0,0,0,0,0,0,0.017,0.0165,0.015,0.015,0.0157,0.018,0.0181,0.0191,0.0193,0.0195,0,0.0197,0,0.0201,0.0209,0.0209,0,0,0,0.0161,0.0164,0.0166,0.015,0.0157,0.018,0.0171,0.0192,0.0194,0.0197,0.0197,0.0198,0.0201,0.0209,0.021,0.0239,0.0239,0,0,0.016,0.0159,0.0165,0.0167,0.0161,0.017,0.0172,0.0193,0.0197,0.0197,0.0199,0.0201,0.021,0.021,0.0239,0.0239,0,0,0,0.0153,0.0158,0.016,0.0166,0.0169,0.0171,0.0173,0.0196,0.0195,0.0199,0.0202,0.021,0.021,0.0239,0.0239,0.0296,0,0,0,0.0153,0.0153,0.0159,0.0159,0.0169,0.0184,0.0175,0.0194,0.0196,0.0202,0.021,0.021,0.0239,0.0239,0.0294,0.0324,0,0,0,0.0149,0.0153,0.0154,0.0159,0.0167,0.0184,0.0185,0.0195,0.0198,0.0209,0.021,0.0239,0.0239,0.0292,0.0321,0.0381,0,0,0,0.0149,0.0153,0.0154,0.0163,0.0166,0.0186,0.0185,0.0202,0.0214,0.021,0.0239,0.0239,0.0292,0.0319,0.0378,0.0401,0.0416,0,0,0.0153,0.0153,0.0159,0.016,0.018,0.0184,0.0217,0.0229,0.022,0.0232,0.0233,0.0295,0.0321,0.038,0.0425,0.0439,0,0,0,0.016,0.0164,0.017,0.0183,0.0195,0.023,0.0236,0.025,0.0275,0.0228,0.0287,0.0302,0.0338,0.0346,0.0356,0.0241,0.0241,0.0241,0.0241,0.017,0.0177,0.0194,0.0209,0.0229,0.0262,0.0297,0.0316,0.0297,0.0318,0.0342,0.0418,0.0426,0.0434,0.0332,0.0332,0.0332,0.0333,0.0333,0.0185,0.02,0.0219,0.0238,0.0274,0.0307,0.0362,0.0372,0.0434,0.0392,0.0424,0.0397,0.045,0.0337,0.0336,0.0336,0.0335,0.0335,0.0335,0.0199,0.0207,0.0218,0.0254,0.0309,0.0349,0.0445,0.0471,0.0486,0.0526,0.0539,0.0538,0.0471,0.0545,0.0545,0.0546,0.0546,0.0546,0.0547,0.0207,0.0219,0.0245,0.028,0.0323,0.04,0.0502,0.0564,0.0615,0.0609,0.0609,0.049,0.0483,0.0483,0.0553,0.0552,0.0551,0.055,0.055,0.0224,0.0228,0.0267,0.0303,0.04,0.0498,0.0587,0.0709,0.0758,0.0783,0.0663,0.0658,0.0648,0.0638,0.0642,0.0749,0.0749,0.0749,0.0749,0.0238,0.0241,0.03,0.0365,0.0457,0.0551,0.0703,0.076,0.0775,0.0732,0.0732,0.0673,0.0666,0.0653,0.0642,0.0643,0.0751,0.0751,0.0751,0.0254,0.0271,0.0319,0.0377,0.0483,0.0613,0.0731,0.0743,0.07,0.0746,0.0687,0.0758,0.0669,0.0659,0.0632,0.0618,0.0617,0,0]}],[{"header":{"parameterUnit":"m.s-1","parameterCategory":2,"la1":30.2992,"la2":30.254,"lo1":-89.0895,"lo2":-89.0443,"dy":0.0025,"dx":0.0025,"nx":19,"ny":19,"refTime":"2026-04-11T21:00:00:Z","depth":"4","parameterNumber":2,"parameterNumberName":"U-component_of_CURRENTS"},"data":[0,0,0,0.0617,0.0618,0.0667,0.0667,0.0734,0.0734,0,0,0,0,0,0,0,0,0,0,0,0.0605,0.0605,0.0617,0.0618,0.0667,0.0667,0.0733,0.0734,0,0,0,0,0,0,0,0,0,0,0,0.0604,0.0605,0.0605,0.0618,0.0667,0.0667,0.0733,0.0697,0,0,0,0,0,0,0,0,0,0,0.0649,0.0644,0.0605,0.0605,0.0618,0.0667,0.0667,0.0695,0.0699,0.071,0,0.0718,0,0.0723,0.0738,0.0738,0,0,0,0.0624,0.064,0.0643,0.0605,0.0618,0.0666,0.0646,0.0698,0.0702,0.0716,0.0719,0.0722,0.0724,0.0738,0.0739,0.0783,0.0783,0,0,0.0622,0.0624,0.064,0.0646,0.0632,0.0645,0.0648,0.07,0.0711,0.0719,0.0723,0.0725,0.0739,0.0739,0.0783,0.0783,0,0,0,0.0609,0.0622,0.0625,0.0643,0.065,0.0646,0.065,0.0709,0.0707,0.0724,0.0726,0.0739,0.074,0.0783,0.0783,0.0793,0,0,0,0.0608,0.0614,0.0623,0.0627,0.0648,0.0681,0.0658,0.0704,0.071,0.0726,0.0739,0.074,0.0783,0.0783,0.0793,0.08,0,0,0,0.0602,0.0614,0.0617,0.0627,0.0643,0.068,0.0682,0.0705,0.0711,0.0738,0.0741,0.0783,0.0783,0.0792,0.0799,0.0829,0,0,0,0.0606,0.0611,0.0618,0.062,0.0642,0.0648,0.0682,0.0698,0.0717,0.0739,0.0783,0.0783,0.0792,0.0798,0.0828,0.0679,0,0,0,0.0609,0.0612,0.0608,0.0614,0.0607,0.0641,0.0655,0.0697,0.0725,0.0767,0.0768,0.0793,0.0799,0.0829,0.0686,0,0,0,0,0.0605,0.0607,0.0605,0.0604,0.0608,0.0633,0.0671,0.0691,0.0745,0.0737,0.0792,0.0795,0.0814,0.0724,0.0783,0.0783,0.0783,0.0783,0.0783,0.0625,0.0607,0.06,0.0593,0.0589,0.0629,0.0668,0.0708,0.0732,0.0757,0.0803,0.0832,0.0735,0.0801,0.0801,0.0801,0.0801,0.0801,0.0801,0.0612,0.0598,0.0581,0.0572,0.0585,0.0601,0.0665,0.0713,0.08,0.0796,0.0815,0.0739,0.0802,0.0802,0.0802,0.0802,0.0802,0.0802,0.0802,0.0606,0.0597,0.0599,0.0568,0.0578,0.061,0.064,0.0737,0.081,0.0853,0.0772,0.0847,0.0849,0.087,0.087,0.087,0.087,0.087,0.087,0.0598,0.0593,0.0574,0.0569,0.0563,0.0571,0.0661,0.0709,0.0799,0.0772,0.0865,0.0855,0.0853,0.0853,0.0873,0.0872,0.0872,0.0872,0.0872,0.0575,0.058,0.054,0.0534,0.0498,0.0492,0.059,0.064,0.0691,0.0707,0.0731,0.0738,0.0726,0.0727,0.0722,0.0704,0.0702,0.0701,0,0.0563,0.056,0.049,0.0445,0.0384,0.0428,0.0418,0.0478,0.0588,0.0555,0.0701,0.0725,0.0729,0.0712,0.0711,0.0702,0,0,0,0.0542,0.0528,0.0462,0.0404,0.0329,0.0325,0.0394,0.0407,0.0556,0.0575,0.0655,0.0667,0.0771,0.088,0.0877,0.0875,0.0875,0,0]},{"header":{"parameterUnit":"m.s-1","parameterCategory":2,"la1":30.2992,"la2":30.254,"lo1":-89.0895,"lo2":-89.0443,"dy":0.0025,"dx":0.0025,"nx":19,"ny":19,"refTime":"2026-04-11T21:00:00:Z","depth":"4","parameterNumber":3,"parameterNumberName":"V-component_of_CURRENTS"},"data":[0,0,0,0.0001,0.0001,0.0022,0.0022,0.0094,0.0095,0,0,0,0,0,0,0,0,0,0,0,-0.0004,-0.0004,0.0001,0.0001,0.0022,0.0022,0.0094,0.0095,0,0,0,0,0,0,0,0,0,0,0,-0.0004,-0.0004,-0.0004,0.0001,0.0022,0.0022,0.0094,0.0069,0,0,0,0,0,0,0,0,0,0,0.0044,0.0032,-0.0004,-0.0004,0.0001,0.0022,0.0022,0.0067,0.007,0.0095,0,0.0093,0,0.0093,0.01,0.01,0,0,0,0.0009,0.0029,0.0031,-0.0004,0.0001,0.0022,0.0015,0.0069,0.0072,0.0099,0.0094,0.0097,0.0094,0.01,0.0101,0.0186,0.0186,0,0,0.0008,0.0007,0.0028,0.0033,0.0002,0.0014,0.0015,0.007,0.0076,0.0094,0.0098,0.0095,0.0101,0.0101,0.0185,0.0186,0,0,0,-0.0001,0.0006,0.0006,0.003,0.0028,0.0014,0.0016,0.0073,0.0072,0.0099,0.0096,0.0101,0.0102,0.0185,0.0186,0.0201,0,0,0,-0.0001,0.0,0.0005,0.0005,0.0027,0.0045,0.0018,0.0068,0.0074,0.0095,0.0101,0.0103,0.0185,0.0185,0.02,0.0213,0,0,0,-0.0004,-0.0,-0.0001,0.0005,0.001,0.0044,0.0046,0.0069,0.0072,0.01,0.0103,0.0184,0.0185,0.0199,0.0211,0.0232,0,0,0,-0.0002,-0.0002,-0.0001,0.0004,0.0009,0.0038,0.0046,0.0071,0.0094,0.0102,0.0185,0.0186,0.0198,0.021,0.0231,0.0197,0,0,0,-0.0002,-0.0002,0.0001,0.0003,0.0026,0.0036,0.008,0.0108,0.0118,0.017,0.0172,0.02,0.0211,0.0232,0.0247,0,0,0,0,0.0002,0.0006,0.0013,0.0027,0.0047,0.0086,0.011,0.0131,0.0173,0.0134,0.0213,0.022,0.0233,0.0209,0.019,0.019,0.0189,0.0189,0.0189,0.0013,0.002,0.0037,0.0055,0.0081,0.0127,0.0161,0.0198,0.02,0.0222,0.0242,0.0283,0.026,0.0249,0.025,0.025,0.025,0.025,0.025,0.0023,0.0034,0.0058,0.0074,0.0118,0.016,0.0225,0.0236,0.0292,0.0279,0.0289,0.0239,0.0252,0.0251,0.0251,0.0251,0.0251,0.0251,0.025,0.0032,0.0038,0.0047,0.0079,0.0132,0.0181,0.025,0.0287,0.0309,0.0329,0.0304,0.0301,0.0289,0.033,0.033,0.033,0.0331,0.0331,0.0331,0.0035,0.0045,0.0055,0.0089,0.0119,0.0183,0.0266,0.0307,0.0335,0.0329,0.0334,0.031,0.0308,0.0295,0.0333,0.0333,0.0333,0.0332,0.0332,0.0036,0.0038,0.0052,0.0073,0.0143,0.0198,0.0267,0.0327,0.0363,0.0369,0.0331,0.033,0.0324,0.0321,0.0308,0.0352,0.0352,0.0352,0,0.0036,0.0039,0.0055,0.0088,0.0154,0.0215,0.0277,0.0326,0.0342,0.0323,0.0366,0.0321,0.0321,0.0311,0.0308,0.0292,0,0,0,0.0035,0.0043,0.0053,0.0084,0.0158,0.0243,0.0301,0.0308,0.0325,0.0354,0.0344,0.0346,0.0353,0.0341,0.033,0.0326,0.0306,0,0]}]]